Flag for Belgium Weather past 2 weeks in Mons, Belgium

Now
43 °F

Drizzle. Broken clouds.


Feels Like: 36 °F
Forecast: 34 / 50 °F
Wind: 12 mph from Northwest

Location: Chievres

Current Time: Apr 2, 2015 at 10:31:36 AM

Latest Report: Apr 2, 2015 at 9:25 AM


Visibility: 3 mi

Pressure: 30.01 "Hg

Humidity: 93%

Dew point: 41 °F

Location of MonsLocation

Historic Weather in Mons — Graph

°F

Mons temperature yesterday

Maximum temperature yesterday: 50 °F (at 3:25 PM)
Minimum temperature yesterday: 41 °F (at 2:25 AM)
Average temperature yesterday: 44 °F

Past Weeks' High & Low Weather Summary

 TemperatureHumidityPressure
High55 °F (Mar 28, 4:25 PM)100% (Mar 18, 9:25 AM)30.42 "Hg (Mar 18, 9:25 AM)
Low28 °F (Mar 23, 4:25 AM)44% (Mar 31, 4:25 PM)29.45 "Hg (Mar 29, 5:03 PM)
Average44 °F83%29.99 "Hg
* Reported Mar 18 8:25 AM — Apr 2 9:25 AM, Mons, Weather by CustomWeather, © 2015

Note: Actual official high and low records may vary slightly from our data, if they occured in-between our weather recording intervals... More about our weather records

Advertising

Mons weather history for previous 24 hours

 ConditionsComfort  
Time TempWeatherWind HumidityBarometerVisibility
9:25 AM
Thu, Apr 2
43 °FDrizzle. Broken clouds.12 mph93%30.01 "Hg3 mi
8:52 AM43 °FBroken clouds.13 mph93%29.98 "Hg3 mi
8:25 AM45 °FBroken clouds.14 mph87%29.95 "HgN/A
7:52 AM45 °FLight rain. Partly cloudy.16 mph93%29.92 "HgN/A
7:25 AM46 °FPassing clouds.20 mph87%29.89 "HgN/A
6:25 AM48 °FRain. Partly cloudy.21 mph87%29.89 "Hg4 mi
5:25 AM46 °FLight rain. Partly cloudy.16 mph93%29.92 "HgN/A
4:25 AM45 °FRain. Partly cloudy.14 mph93%29.95 "Hg4 mi
3:25 AM45 °FRain. Partly cloudy.14 mph93%30.01 "Hg6 mi
3:03 AM43 °FLight rain. Partly cloudy.14 mph100%30.04 "Hg4 mi
2:25 AM43 °FPassing clouds.12 mph93%30.07 "Hg5 mi
1:25 AM45 °FDrizzle. Overcast.14 mph81%30.09 "HgN/A
12:25 AM45 °FPassing clouds.13 mph81%30.12 "HgN/A
11:25 PM
Wed, Apr 1
45 °FPartly cloudy.13 mph81%30.15 "HgN/A
10:25 PM45 °FPartly cloudy.16 mph76%30.15 "HgN/A
9:25 PM46 °FPassing clouds.16 mph66%30.18 "HgN/A
8:25 PM46 °FPartly sunny.13 mph66%30.18 "HgN/A
7:25 PM46 °FPartly sunny.14 mph66%30.18 "HgN/A
6:25 PM46 °FBroken clouds.14 mph71%30.21 "HgN/A
5:25 PM46 °FBroken clouds.16 mph57%30.21 "HgN/A
4:25 PM48 °FBroken clouds.22 mph54%30.21 "HgN/A
3:25 PM50 °FPartly sunny.21 mph50%30.21 "HgN/A
2:25 PM48 °FBroken clouds.20 mph58%30.21 "HgN/A
1:25 PM46 °FPassing clouds.18 mph57%30.21 "HgN/A
12:25 PM45 °FBroken clouds.20 mph61%30.21 "HgN/A
11:25 AM45 °FPartly sunny.20 mph66%30.21 "HgN/A
10:25 AM43 °FPartly sunny.18 mph66%30.18 "HgN/A
Weather by CustomWeather, © 2015

See weather overviewHow to use our weather pages